Location: Killam
(52.7910°N, 111.8608°W)
Time: 07:08:53
(UTC+00:00)

AO-73 - Pass Details

Date: 19 March 2026
Orbit: 514 x 567 km, 97.8° (Epoch: 14 April)

Event Time Altitude Azimuth Distance (km) Brightness Sun altitude
Rises 11:34:33 0° 13° (NNE) 2,668 ? -18.1°
Reaches altitude 10° 11:36:40 10° 12° (NNE) 1,768 ? -17.8°
Maximum altitude 11:40:28 77° 287° (WNW) 538 ? -17.2°
Enters shadow 11:42:17 29° 205° (SSW) 963 ? -17.0°
